Weerstation Grootegast  Weerstation Grootegast


15 daagse weersverwachting Kolding (DK)

  • Overzicht
  • Per uur
  • 15 dagen
  • Extra
  • Vergelijk
  • Kaarten
  • Dagkaart
  • Meer »
  • Info
  • Statistieken
  • Directe link
    Temp 6h Neerslag Wind  
 04:41     22:07    Daglengte: 17:26 Vandaag
02:00
13°
 
2
08:00
16°
 
4
14:00
21°
 
5
20:00
21°
 
2
 04:41     22:07    Daglengte: 17:26 Morgen
02:00
17°
 
3
08:00
18°
 
3
14:00
24°
 
3
20:00
22°
3.9 mm
2
 04:41     22:08    Daglengte: 17:27 Woensdag 19 Jun
02:00
16°
 
1
08:00
19°
 
2
14:00
26°
1.0 mm
4
20:00
23°
 
3
Locatie info
Region: Syddanmark
Latitude: 55.4864°N
Longitude: 9.4734°E
8 masl
Postcode: 6000
Temp/Neerslag /Baro Onweer/Dauwpunt
    Temp Baro 1h Neerslag Dauwpunt Wind UV Bewolking  
 04:41     22:07    Daglengte: 17:26 Vandaag
02:00
13°
1020.0 hPa   11.2°
2
Windvlaag: 2.4 m/s
8%
03:00
13°
1019.9 hPa   10.7°
2
Windvlaag: 2.8 m/s
8%
04:00
12°
1019.8 hPa
12%
10.4°
2
Windvlaag: 3.2 m/s
6%
05:00
12°
1019.9 hPa
12%
10.5°
2
Windvlaag: 3.2 m/s
18%
06:00
13°
1019.8 hPa
12%
10.7°
2
Windvlaag: 3 m/s
17%
07:00
14°
1020.1 hPa
12%
11.6°
3
Windvlaag: 4.2 m/s
14%
08:00
16°
1020.2 hPa
12%
13.0°
4
Windvlaag: 6.7 m/s
1%
09:00
18°
1020.3 hPa
12%
13.2°
4
Windvlaag: 7.2 m/s
4%
10:00
19°
1020.4 hPa
13%
13.1°
5
Windvlaag: 7.8 m/s
17%
11:00
20°
1020.5 hPa
12%
13.3°
5
Windvlaag: 8.2 m/s
17%
12:00
21°
1020.5 hPa
12%
13.1°
6
Windvlaag: 8.3 m/s
8%
13:00
21°
1020.5 hPa
12%
12.4°
5
Windvlaag: 8.2 m/s
6%
14:00
21°
1020.5 hPa
12%
12.4°
5
Windvlaag: 7.9 m/s
7%
15:00
21°
1020.3 hPa
12%
12.4°
5
Windvlaag: 7.7 m/s
1%
16:00
22°
1020.2 hPa
12%
12.6°
4
Windvlaag: 7 m/s
6%
17:00
22°
1019.8 hPa
12%
12.7°
4
Windvlaag: 6.4 m/s
4%
18:00
22°
1019.6 hPa
12%
12.6°
4
Windvlaag: 6.1 m/s
6%
19:00
21°
1019.5 hPa
12%
12.6°
3
Windvlaag: 5.5 m/s
9%
20:00
21°
1019.3 hPa
12%
12.6°
2
Windvlaag: 4 m/s
10%
21:00
20°
1019.2 hPa
12%
14.0°
2
Windvlaag: 4.2 m/s
24%
22:00
18°
1019.1 hPa
12%
13.4°
3
Windvlaag: 5.2 m/s
27%
23:00
18°
1019.0 hPa
12%
13.3°
2
Windvlaag: 5.2 m/s
45%
 04:41     22:07    Daglengte: 17:26 Morgen
00:00
17°
1018.6 hPa
12%
13.0°
3
Windvlaag: 6.4 m/s
56%
01:00
17°
1018.5 hPa
12%
13.1°
3
Windvlaag: 6.9 m/s
42%
02:00
17°
1018.2 hPa
12%
13.4°
3
Windvlaag: 7.3 m/s
73%
03:00
17°
1017.8 hPa
12%
14.0°
3
Windvlaag: 7.2 m/s
65%
04:00
17°
1017.4 hPa
13%
14.0°
3
Windvlaag: 6.8 m/s
63%
05:00
16°
1016.8 hPa
14%
14.2°
4
Windvlaag: 7.9 m/s
75%
06:00
17°
1016.6 hPa
19%
14.6°
3
Windvlaag: 7.5 m/s
71%
07:00
17°
1016.4 hPa
15%
15.0°
3
Windvlaag: 6.5 m/s
65%
08:00
18°
1016.4 hPa
14%
15.2°
3
Windvlaag: 6.4 m/s
77%
09:00
19°
1016.3 hPa
14%
15.5°
3
Windvlaag: 6.3 m/s
77%
10:00
20°
1016.1 hPa
14%
15.3°
3
Windvlaag: 6.1 m/s
82%
11:00
21°
1015.8 hPa
14%
15.7°
3
Windvlaag: 5.7 m/s
66%
12:00
22°
1015.4 hPa
14%
15.7°
3
Windvlaag: 4.7 m/s
54%
13:00
23°
1015.0 hPa
14%
16.1°
3
Windvlaag: 5.2 m/s
40%
14:00
24°
1014.7 hPa
18%
17.1°
3
Windvlaag: 6.3 m/s
26%
15:00
24°
1014.2 hPa
33%
17.1°
3
Windvlaag: 5.9 m/s
43%
16:00
24°
1014.0 hPa 1.2 mm
78%
16.5°
3
Windvlaag: 6.5 m/s
64%
17:00
24°
1013.6 hPa 1.4 mm
97%
17.1°
3
Windvlaag: 6.1 m/s
89%
18:00
23°
1013.4 hPa 1.3 mm
95%
16.8°
3
Windvlaag: 5.6 m/s
90%
19:00
23°
1013.4 hPa
40%
16.4°
3
Windvlaag: 5 m/s
84%
20:00
22°
1013.2 hPa
22%
15.8°
2
Windvlaag: 3.6 m/s
83%
21:00
21°
1013.2 hPa
21%
15.5°
1
Windvlaag: 3.2 m/s
90%
22:00
19°
1013.2 hPa
21%
15.6°
1
Windvlaag: 1.7 m/s
79%
23:00
19°
1012.9 hPa
21%
15.2°
1
Windvlaag: 1.6 m/s
82%
 04:41     22:08    Daglengte: 17:27 Woensdag 19 Jun
00:00
17°
1012.7 hPa
21%
15.4°
1
Windvlaag: 1.4 m/s
66%
01:00
17°
1012.6 hPa
21%
14.8°
1
Windvlaag: 1 m/s
62%
02:00
16°
1012.3 hPa
21%
14.7°
1
Windvlaag: 0.5 m/s
80%
03:00
16°
1011.8 hPa
21%
14.3°
1
Windvlaag: 1.1 m/s
78%
04:00
15°
1011.5 hPa
22%
14.2°
1
Windvlaag: 1 m/s
72%
05:00
15°
1011.2 hPa
24%
13.9°
1
Windvlaag: 1.1 m/s
77%
06:00
16°
1010.9 hPa
21%
14.3°
1
Windvlaag: 1.4 m/s
66%
07:00
17°
1010.5 hPa
22%
14.8°
2
Windvlaag: 1.9 m/s
24%
08:00
19°
1010.4 hPa
22%
15.4°
2
Windvlaag: 2.5 m/s
40%
09:00
21°
1009.9 hPa
21%
16.1°
3
Windvlaag: 4.8 m/s
23%
10:00
22°
1009.6 hPa
21%
15.7°
3
Windvlaag: 5.7 m/s
19%
11:00
23°
1009.1 hPa
21%
16.9°
4
Windvlaag: 6.5 m/s
28%
12:00
24°
1008.7 hPa 1.0 mm
97%
17.5°
4
Windvlaag: 6.7 m/s
29%
13:00
25°
1008.3 hPa
88%
16.6°
4
Windvlaag: 7.8 m/s
17%
14:00
26°
1007.8 hPa
28%
15.6°
4
Windvlaag: 8.3 m/s
26%
15:00
25°
1007.5 hPa
21%
16.5°
5
Windvlaag: 1.4 m/s
51%
16:00
25°
1006.9 hPa
21%
17.8°
5
Windvlaag: 1.4 m/s
27%
17:00
25°
1006.3 hPa
21%
18.5°
4
Windvlaag: 1.3 m/s
10%
18:00
25°
1006.0 hPa
65%
18.7°
4
Windvlaag: 1.2 m/s
46%
19:00
24°
1005.6 hPa
24%
18.2°
3
Windvlaag: 0.6 m/s
60%
20:00
23°
1005.3 hPa
21%
18.4°
3
Windvlaag: 0.9 m/s
72%
21:00
21°
1005.5 hPa
21%
17.9°
3
Windvlaag: 11 m/s
79%
22:00
20°
1005.4 hPa
25%
17.3°
3
Windvlaag: 5.7 m/s
85%
23:00
20°
1005.7 hPa
21%
17.0°
2
Windvlaag: 2.8 m/s
67%
 04:41     22:08    Daglengte: 17:27 Donderdag 20 Jun
00:00
19°
1005.7 hPa
21%
16.5°
3
Windvlaag: 8.1 m/s
62%
01:00
18°
1005.8 hPa 5.8 mm
73%
15.9°
3
Windvlaag: 9.6 m/s
47%
Temp/Neerslag /Baro Onweer/Dauwpunt
    Temp Baro Neerslag Dauwpunt Wind Bewolking  
 04:41     22:07    Daglengte: 17:26 Vandaag
02:00
13°
1020.0 hPa   11.2°
2
8%
05:00
12°
1019.9 hPa   10.5°
2
18%
08:00
16°
1020.2 hPa   13.0°
4
1%
11:00
20°
1020.5 hPa   13.3°
5
17%
14:00
21°
1020.5 hPa   12.4°
5
7%
17:00
22°
1019.8 hPa   12.7°
4
4%
20:00
21°
1019.3 hPa   12.6°
2
10%
23:00
18°
1019.0 hPa   13.3°
2
45%
 04:41     22:07    Daglengte: 17:26 Morgen
02:00
17°
1018.2 hPa   13.4°
3
73%
05:00
16°
1016.8 hPa   14.2°
4
75%
08:00
18°
1016.4 hPa   15.2°
3
77%
11:00
21°
1015.8 hPa   15.7°
3
66%
14:00
24°
1014.7 hPa   17.1°
3
26%
17:00
24°
1013.6 hPa 2.5 mm 17.1°
3
89%
20:00
22°
1013.2 hPa 1.3 mm 15.8°
2
83%
23:00
19°
1012.9 hPa   15.2°
1
82%
 04:41     22:08    Daglengte: 17:27 Woensdag 19 Jun
02:00
16°
1012.3 hPa   14.7°
1
80%
05:00
15°
1011.2 hPa   13.9°
1
77%
08:00
19°
1010.4 hPa   15.4°
2
40%
11:00
23°
1009.1 hPa   16.9°
4
28%
14:00
26°
1007.8 hPa 1.0 mm 15.6°
4
26%
17:00
25°
1006.3 hPa   18.5°
4
10%
20:00
23°
1005.3 hPa   18.4°
3
72%
23:00
20°
1005.7 hPa   17.0°
2
67%
 04:41     22:08    Daglengte: 17:27 Donderdag 20 Jun
02:00
17°
1006.0 hPa 17.6 mm 15.3°
3
91%
05:00
16°
1007.3 hPa 19.1 mm 14.5°
4
90%
08:00
16°
1007.9 hPa 19.1 mm 14.2°
4
92%
11:00
18°
1009.3 hPa 19.2 mm 13.9°
4
65%
14:00
20°
1010.6 hPa 19.2 mm 13.4°
5
37%
17:00
19°
1011.0 hPa 19.2 mm 13.0°
3
20%
20:00
18°
1011.4 hPa 19.2 mm 12.4°
2
4%
23:00
15°
1012.3 hPa 19.2 mm 12.2°
2
2%
 04:41     22:08    Daglengte: 17:27 Vrijdag 21 Jun
02:00
13°
1013.2 hPa 19.2 mm 11.8°
2
1%
05:00
14°
1013.9 hPa 19.2 mm 12.1°
2
18%
08:00
15°
1014.5 hPa 19.2 mm 12.6°
3
34%
11:00
17°
1015.1 hPa 19.2 mm 12.1°
4
31%
14:00
18°
1015.6 hPa 19.3 mm 11.3°
5
27%
17:00
17°
1016.0 hPa 19.3 mm 10.3°
4
15%
20:00
16°
1016.5 hPa 19.3 mm 9.1°
4
3%
23:00
13°
1017.8 hPa 19.3 mm 9.3°
3
5%
 04:41     22:08    Daglengte: 17:27 Zaterdag 22 Jun
02:00
10°
Voelt als: 8.7°
1019.1 hPa 19.3 mm 8.8°
2
6%
05:00
11°
1020.0 hPa 19.3 mm 9.4°
2
7%
08:00
14°
1021.0 hPa 19.3 mm 10.1°
2
7%
11:00
16°
1021.3 hPa 19.3 mm 9.5°
2
34%
14:00
18°
1021.6 hPa 19.3 mm 8.3°
3
62%
17:00
17°
1021.7 hPa 19.5 mm 9.1°
3
62%
20:00
16°
1021.9 hPa 19.6 mm 9.6°
2
62%
23:00
13°
1022.6 hPa 19.6 mm 9.2°
2
74%
 04:42     22:09    Daglengte: 17:27 Zondag 23 Jun
02:00
10°
1023.2 hPa 19.6 mm 8.3°
2
86%
05:00
12°
1023.3 hPa 19.6 mm 8.8°
2
88%
08:00
13°
1023.5 hPa 19.6 mm 9.6°
2
90%
11:00
16°
1023.3 hPa 19.6 mm 10.7°
3
63%
14:00
19°
1023.1 hPa 19.6 mm 11.6°
3
36%
17:00
18°
1022.2 hPa 19.6 mm 11.5°
3
54%
20:00
17°
1021.4 hPa 19.6 mm 11.2°
4
72%
23:00
15°
1021.1 hPa   10.7°
4
82%
 04:42     22:09    Daglengte: 17:27 Maandag 24 Jun
02:00
14°
1020.8 hPa 39.2 mm 10.2°
3
92%
08:00
14°
1019.9 hPa 39.2 mm 10.5°
4
90%
14:00
21°
1018.3 hPa 39.2 mm 12.0°
4
80%
20:00
19°
1017.2 hPa 39.2 mm 15.1°
3
89%
 04:43     22:09    Daglengte: 17:26 Dinsdag 25 Jun
02:00
15°
1016.5 hPa 39.2 mm 11.9°
3
92%
08:00
15°
1013.9 hPa 39.2 mm 13.7°
6
92%
14:00
20°
1009.6 hPa 42.5 mm 17.2°
6
85%
20:00
18°
1008.1 hPa 65.1 mm 14.7°
8
62%
 04:43     22:08    Daglengte: 17:25 Woensdag 26 Jun
02:00
13°
1011.9 hPa 71.4 mm 11.5°
6
59%
08:00
15°
1013.7 hPa 71.5 mm 11.7°
7
92%
14:00
19°
1015.3 hPa 74.5 mm 12.2°
8
81%
20:00
18°
1017.9 hPa 0.5 mm 12.4°
3
43%
 04:44     22:08    Daglengte: 17:24 Donderdag 27 Jun
02:00
14°
1017.6 hPa 0.4 mm 11.0°
3
39%
08:00
15°
1016.3 hPa 0.8 mm 11.2°
2
49%
14:00
19°
1015.9 hPa 0.8 mm 12.4°
2
48%
20:00
18°
1014.3 hPa 1.8 mm 12.8°
2
38%
 04:44     22:08    Daglengte: 17:24 Vrijdag 28 Jun
02:00
14°
1013.7 hPa 0.8 mm 11.8°
2
35%
08:00
15°
1012.5 hPa 0.3 mm 11.4°
2
45%
14:00
18°
1011.9 hPa 0.7 mm 11.8°
3
52%
20:00
17°
1010.9 hPa 1.8 mm 12.2°
3
47%
 04:45     22:08    Daglengte: 17:23 Zaterdag 29 Jun
02:00
14°
1010.8 hPa 0.7 mm 11.1°
3
48%
08:00
15°
1010.5 hPa 0.6 mm 11.2°
3
50%
14:00
18°
1011.0 hPa 0.7 mm 11.4°
4
53%
20:00
17°
1010.9 hPa 1.6 mm 11.6°
4
42%
 04:46     22:07    Daglengte: 17:21 Zondag 30 Jun
02:00
14°
1011.1 hPa 1.6 mm 11.0°
4
35%
08:00
15°
1010.9 hPa 1.2 mm 11.3°
4
49%
14:00
18°
1011.4 hPa 1.0 mm 11.9°
4
53%
20:00
17°
1011.4 hPa 1.3 mm 11.8°
4
40%
 04:46     22:07    Daglengte: 17:21 Maandag 01 Jul
02:00
14°
1012.1 hPa 0.7 mm 11.0°
4
41%
08:00
15°
1012.1 hPa 0.4 mm 11.3°
4
42%
14:00
18°
1012.7 hPa 0.8 mm 11.7°
4
55%
20:00
17°
1012.6 hPa 0.7 mm 11.9°
4
45%
  CAPE Lifted Index Hail Supercell Tornado SRH 3km CL BTM PRES CL TOP PRES Swiss DWD icon SMHI TS
 04:41     22:07    Daglengte: 17:26 Vandaag
02:00 0 J/kg 6.1 K 0 % 0 % 0 % 0 m²/s² 0 0 8.11 0
03:00 0 J/kg 6.0 K 0 % 0 % 0 % 0 m²/s² 0 0 8.88 0
04:00 0 J/kg 4.5 K 0 % 0 % 0 % 0 m²/s² 0 0 8.67 0
05:00 0 J/kg 4.3 K 0 % 0 % 0 % 0 m²/s² 0 0 8.17 0
06:00 0 J/kg 3.8 K 0 % 0 % 0 % 0 m²/s² 0 0 7.1 0
07:00 0 J/kg 3.6 K 0 % 0 % 0 % 0 m²/s² 0 0 5.76 1
08:00 0 J/kg 3.0 K 0 % 0 % 0 % 0 m²/s² 0 0 4.59 1
09:00 5 J/kg 1.6 K 0 % 0 % 0 % 0 m²/s² 0 0 2.98 2
10:00 38 J/kg 1.0 K 0 % 0 % 0 % 0 m²/s² 0 0 2.23 2
11:00 58 J/kg 1.0 K 0 % 0 % 0 % 0 m²/s² 0 0 2.23 2
12:00 5 J/kg 1.8 K 0 % 0 % 0 % 0 m²/s² 0 0 3.18 1
13:00 7 J/kg 1.6 K 0 % 0 % 0 % 0 m²/s² 0 0 3.4 2
14:00 51 J/kg 0.9 K 0 % 0 % 0 % 0 m²/s² 0 0 3.15 2
15:00 56 J/kg 0.7 K 0 % 0 % 0 % 0 m²/s² 0 0 3.61 0
16:00 67 J/kg 0.7 K 0 % 0 % 0 % 0 m²/s² 0 0 3.85 1
17:00 68 J/kg 0.6 K 0 % 0 % 0 % 0 m²/s² 0 0 4.23 2
18:00 42 J/kg 0.7 K 0 % 0 % 0 % 0 m²/s² 0 0 4.33 1
19:00 41 J/kg 0.9 K 0 % 0 % 0 % 0 m²/s² 0 0 4.62 0
20:00 82 J/kg 0.3 K 0 % 0 % 0 % 0 m²/s² 0 0 4.44 0
21:00 10 J/kg 0.4 K 0 % 0 % 0 % 0 m²/s² 0 0 3.94 0
22:00 1 J/kg 0.5 K 0 % 0 % 0 % 0 m²/s² 0 0 3.59 0
23:00 0 J/kg 0.0 K 0 % 0 % 0 % 0 m²/s² 0 0 2.61 0
 04:41     22:07    Daglengte: 17:26 Morgen
00:00 0 J/kg -0.4 K 0 % 0 % 0 % 0 m²/s² 0 0 1.85 0
01:00 0 J/kg -0.3 K 0 % 0 % 0 % 0 m²/s² 0 0 1.86 3
02:00 0 J/kg 0.0 K 0 % 0 % 0 % 0 m²/s² 0 0 1.86 3
03:00 0 J/kg -0.4 K 0 % 0 % 0 % 0 m²/s² 0 0 1.4 1
04:00 0 J/kg -1.3 K 0 % 0 % 0 % 0 m²/s² 0 0 -0.16 3
05:00 0 J/kg -2.4 K 0 % 0 % 0 % 0 m²/s² 0 0 0.36 3
06:00 0 J/kg -2.5 K 0 % 0 % 0 % 0 m²/s² 0 0 0.02 2
07:00 251 J/kg -2.9 K 0 % 0 % 0 % 0 m²/s² 0 0 -0.35 1
08:00 122 J/kg -2.8 K 0 % 0 % 0 % 0 m²/s² 0 0 0.05 1
09:00 198 J/kg -2.9 K 0 % 0 % 0 % 0 m²/s² 0 0 -0.65 3
10:00 417 J/kg -2.9 K 0 % 0 % 0 % 0 m²/s² 0 0 -0.65 3
11:00 915 J/kg -3.5 K 0 % 0 % 0 % 0 m²/s² 0 0 -1.04 3
12:00 1357 J/kg -4.6 K 0 % 0 % 0 % 0 m²/s² 0 0 -1.84 3
13:00 1567 J/kg -5.4 K 0 % 0 % 0 % 0 m²/s² 0 0 -2.4 3
14:00 1630 J/kg -5.6 K 0 % 0 % 0 % 0 m²/s² 0 0 -2.33 3
15:00 1419 J/kg -5.1 K 0 % 0 % 0 % 0 m²/s² 0 0 -1.44 3
16:00 1067 J/kg -3.9 K 0 % 0 % 0 % 0 m²/s² 0 0 0.48 80
17:00 666 J/kg -2.7 K 0 % 0 % 0 % 0 m²/s² 0 0 1.8 80
18:00 316 J/kg -1.9 K 0 % 0 % 0 % 0 m²/s² 0 0 2.15 80
19:00 38 J/kg -1.1 K 0 % 0 % 0 % 0 m²/s² 0 0 3.04 2
20:00 0 J/kg -1.0 K 0 % 0 % 0 % 0 m²/s² 0 0 3.05 1
21:00 0 J/kg -1.0 K 0 % 0 % 0 % 0 m²/s² 0 0 2.87 3
22:00 0 J/kg -1.2 K 0 % 0 % 0 % 0 m²/s² 0 0 2.37 3
23:00 0 J/kg -2.1 K 0 % 0 % 0 % 0 m²/s² 0 0 1.11 2
 04:41     22:08    Daglengte: 17:27 Woensdag 19 Jun
00:00 0 J/kg -2.2 K 0 % 0 % 0 % 0 m²/s² 0 0 0.92 3
01:00 0 J/kg -2.2 K 0 % 0 % 0 % 0 m²/s² 0 0 0.83 3
02:00 0 J/kg -2.5 K 0 % 0 % 0 % 0 m²/s² 0 0 0.71 3
03:00 0 J/kg -1.5 K 0 % 0 % 0 % 0 m²/s² 0 0 0.99 3
04:00 0 J/kg -1.8 K 0 % 0 % 0 % 0 m²/s² 0 0 0.03 3
05:00 6 J/kg -1.4 K 0 % 0 % 0 % 0 m²/s² 0 0 0.73 3
06:00 0 J/kg -1.4 K 0 % 0 % 0 % 0 m²/s² 0 0 0.37 3
07:00 122 J/kg -1.6 K 0 % 0 % 0 % 0 m²/s² 0 0 0.47 3
08:00 307 J/kg -2.1 K 0 % 0 % 0 % 0 m²/s² 0 0 0.18 3
09:00 113 J/kg -1.6 K 0 % 0 % 0 % 0 m²/s² 0 0 0.89 3
10:00 419 J/kg -2.5 K 0 % 0 % 0 % 0 m²/s² 0 0 -0.16 3
11:00 579 J/kg -2.5 K 0 % 0 % 0 % 0 m²/s² 0 0 -0.22 3
12:00 758 J/kg -2.7 K 0 % 0 % 0 % 0 m²/s² 0 0 -0.87 3
13:00 937 J/kg -3.5 K 0 % 0 % 0 % 0 m²/s² 0 0 -1.22 3
14:00 1061 J/kg -4.8 K 0 % 0 % 0 % 0 m²/s² 0 0 -2.28 3
15:00 1472 J/kg -5.3 K 0 % 0 % 0 % 0 m²/s² 0 0 -3.2 1
16:00 1613 J/kg -5.8 K 0 % 0 % 0 % 0 m²/s² 0 0 -3.97 1
17:00 1552 J/kg -6.4 K 0 % 0 % 0 % 0 m²/s² 0 0 -4.63 3
18:00 1617 J/kg -5.9 K 0 % 0 % 0 % 0 m²/s² 0 0 -4.43 1
19:00 1599 J/kg -4.8 K 0 % 0 % 0 % 0 m²/s² 0 0 -1.95 2
20:00 1398 J/kg -5.3 K 0 % 0 % 0 % 0 m²/s² 0 0 -3.47 0
21:00 816 J/kg -3.4 K 0 % 0 % 0 % 0 m²/s² 0 0 -2.5 3
22:00 194 J/kg -1.7 K 0 % 0 % 0 % 0 m²/s² 0 0 -1.43 3
23:00 453 J/kg -3.0 K 0 % 0 % 0 % 0 m²/s² 0 0 -2.82 1
 04:41     22:08    Daglengte: 17:27 Donderdag 20 Jun
00:00 74 J/kg -1.7 K 0 % 0 % 0 % 0 m²/s² 0 0 0.07 3
01:00 0 J/kg 0.6 K 0 % 0 % 0 % 0 m²/s² 0 0 3.27 2
Temp Baro Wind Neerslag
  EWN Forecast EWN WRFDA DWD ICON FMI HIRLAM MET Norway GFS
 04:41     22:07    Daglengte: 17:26 Vandaag
02:00 12.8° 1020.0 hPa 1.7 m/s 0.0 mm 9.7° 1020.0 hPa 2.4 m/s 0.0 mm 12.5° 1020.6 hPa 1.4 m/s -2.0 mm 12.5° 1019.2 hPa 1.8 m/s 0.0 mm 14.2° 1020.0 hPa 1.5 m/s 10.4° 1020.1 hPa 2.8 m/s
05:00 12.0° 1019.9 hPa 1.9 m/s 0.0 mm 9.4° 1019.8 hPa 2.3 m/s 0.0 mm 11.8° 1020.1 hPa 1.4 m/s 0.0 mm 12.1° 1018.6 hPa 2.2 m/s 0.0 mm 12.9° 1020.0 hPa 1.6 m/s 0.0 mm 10.0° 1019.6 hPa 3.1 m/s
08:00 16.0° 1020.2 hPa 3.7 m/s 0.0 mm 16.0° 1020.0 hPa 4.4 m/s 0.0 mm 15.5° 1020.6 hPa 3.1 m/s 0.0 mm 15.8° 1018.5 hPa 4.5 m/s 0.0 mm 17.4° 1020.4 hPa 3.6 m/s 0.0 mm 15.9° 1020.3 hPa 5.5 m/s
11:00 20.0° 1020.5 hPa 5.1 m/s 0.0 mm 19.5° 1020.3 hPa 5.8 m/s 0.0 mm 19.0° 1020.9 hPa 5.2 m/s 0.0 mm 20.1° 1019.1 hPa 5.7 m/s 0.0 mm 20.8° 1020.6 hPa 4.5 m/s 0.0 mm 18.7° 1021.1 hPa 5.9 m/s
14:00 21.4° 1020.5 hPa 5.3 m/s 0.0 mm 20.9° 1020.5 hPa 4.3 m/s 0.0 mm 20.7° 1020.9 hPa 5.4 m/s 0.0 mm 21.3° 1019.5 hPa 6.1 m/s 0.0 mm 23.1° 1020.5 hPa 4.9 m/s 0.0 mm 19.9° 1020.9 hPa 5.2 m/s
17:00 21.7° 1019.8 hPa 4.0 m/s 0.0 mm 21.7° 1019.6 hPa 3.7 m/s 0.0 mm 20.8° 1020.1 hPa 4.0 m/s 0.0 mm 20.4° 1019.1 hPa 5.3 m/s 0.0 mm 23.8° 1019.8 hPa 3.3 m/s 0.0 mm 20.1° 1020.3 hPa 4.0 m/s
20:00 20.7° 1019.3 hPa 1.8 m/s 0.0 mm 20.4° 1018.3 hPa 3.2 m/s 0.0 mm 19.8° 1019.6 hPa 1.1 m/s 0.0 mm 19.8° 1018.5 hPa 2.7 m/s 0.0 mm 22.4° 1019.4 hPa 1.7 m/s 0.0 mm 19.5° 1019.2 hPa 1.9 m/s
23:00 17.6° 1019.0 hPa 2.5 m/s 0.0 mm 16.4° 1018.4 hPa 3.9 m/s 0.0 mm 16.0° 1019.2 hPa 1.6 m/s 0.0 mm 17.9° 1018.7 hPa 1.4 m/s 0.0 mm 18.6° 1019.0 hPa 2.5 m/s 0.0 mm 15.1° 1019.3 hPa 3.9 m/s
 04:41     22:07    Daglengte: 17:26 Morgen
02:00 16.8° 1018.2 hPa 3.5 m/s 0.0 mm 15.7° 1017.7 hPa 4.8 m/s 0.0 mm 16.0° 1018.0 hPa 3.4 m/s 0.0 mm 17.0° 1018.0 hPa 1.2 m/s 0.0 mm 17.8° 1018.3 hPa 3.6 m/s 0.0 mm 15.1° 1018.2 hPa 4.9 m/s
05:00 16.5° 1016.8 hPa 3.9 m/s 0.0 mm 14.9° 1016.6 hPa 2.3 m/s 0.3 mm 16.2° 1016.9 hPa 4.0 m/s 0.0 mm 15.4° 1016.9 hPa 2.4 m/s 0.0 mm 17.0° 1016.9 hPa 4.0 m/s 0.0 mm 14.4° 1017.1 hPa 3.4 m/s
08:00 18.1° 1016.4 hPa 3.0 m/s 0.0 mm 17.7° 1015.5 hPa 5.3 m/s 1.8 mm 18.0° 1016.5 hPa 2.5 m/s 0.0 mm 17.3° 1016.3 hPa 3.1 m/s 0.0 mm 18.6° 1016.8 hPa 1.9 m/s 0.0 mm 16.9° 1016.7 hPa 3.5 m/s
11:00 20.7° 1015.8 hPa 2.7 m/s 0.0 mm 20.4° 1015.7 hPa 3.6 m/s 3.2 mm 20.9° 1015.6 hPa 2.9 m/s 0.0 mm 21.0° 1015.7 hPa 2.7 m/s 0.0 mm 21.6° 1016.5 hPa 2.2 m/s 0.0 mm 20.5° 1016.3 hPa 3.3 m/s
14:00 23.6° 1014.7 hPa 3.3 m/s 0.0 mm 23.3° 1014.6 hPa 2.8 m/s 4.8 mm 22.9° 1014.8 hPa 2.8 m/s 0.0 mm 24.0° 1014.4 hPa 4.5 m/s 0.0 mm 25.9° 1015.0 hPa 3.7 m/s 0.0 mm 22.5° 1015.5 hPa 3.1 m/s
17:00 23.5° 1013.6 hPa 3.2 m/s 2.5 mm 23.8° 1013.8 hPa 3.5 m/s 7.5 mm 21.2° 1014.0 hPa 1.6 m/s 2.2 mm 24.7° 1013.8 hPa 3.7 m/s 0.0 mm 21.4° 1014.8 hPa 3.1 m/s
20:00 22.0° 1013.2 hPa 1.7 m/s 1.3 mm 21.8° 1013.4 hPa 2.4 m/s 7.5 mm 21.0° 1013.4 hPa 0.7 m/s 0.3 mm 23.7° 1013.4 hPa 1.6 m/s 0.0 mm 19.0° 1013.9 hPa 2.3 m/s
23:00 18.6° 1012.9 hPa 1.5 m/s 0.0 mm 17.1° 1013.4 hPa 2.2 m/s 7.5 mm 18.5° 1013.0 hPa 0.6 m/s 0.0 mm 20.2° 1012.9 hPa 1.4 m/s 0.0 mm 13.5° 1014.4 hPa 2.3 m/s
 04:41     22:08    Daglengte: 17:27 Woensdag 19 Jun
02:00 16.3° 1012.3 hPa 1.3 m/s 0.0 mm 16.4° 1012.2 hPa 2.5 m/s 7.5 mm 15.9° 1012.4 hPa 1.1 m/s 0.0 mm 16.8° 1012.3 hPa 0.5 m/s 0.0 mm 12.6° 1013.0 hPa 2.1 m/s
05:00 15.0° 1011.2 hPa 1.4 m/s 0.0 mm 15.1° 1010.6 hPa 2.9 m/s 8.1 mm 15.1° 1011.5 hPa 1.4 m/s 0.0 mm 15.5° 1011.2 hPa 0.8 m/s 0.0 mm 11.9° 1012.0 hPa 2.2 m/s
08:00 18.8° 1010.4 hPa 1.9 m/s 0.0 mm 19.6° 1009.3 hPa 3.1 m/s 8.2 mm 18.0° 1011.0 hPa 3.2 m/s 0.0 mm 19.5° 1010.2 hPa 1.6 m/s 0.0 mm 16.5° 1011.2 hPa 2.9 m/s
11:00 23.1° 1009.1 hPa 3.6 m/s 0.0 mm 22.7° 1007.9 hPa 5.1 m/s 8.2 mm 20.1° 1010.1 hPa 4.0 m/s 0.0 mm 24.2° 1009.1 hPa 3.0 m/s 0.0 mm 19.8° 1010.6 hPa 3.9 m/s
14:00 25.6° 1007.8 hPa 4.0 m/s 1.0 mm 24.4° 1006.5 hPa 7.2 m/s 8.2 mm 22.3° 1008.5 hPa 3.6 m/s 0.2 mm 27.4° 1007.8 hPa 3.7 m/s 0.0 mm 21.2° 1009.0 hPa 4.4 m/s
17:00 25.0° 1006.3 hPa 4.4 m/s 0.0 mm 25.0° 1005.5 hPa 6.6 m/s 8.2 mm 24.2° 1006.7 hPa 3.2 m/s 0.0 mm 25.3° 1006.3 hPa 4.3 m/s 0.0 mm 21.4° 1007.3 hPa 3.4 m/s
20:00 22.7° 1005.3 hPa 2.7 m/s 0.0 mm 22.2° 1003.9 hPa 4.0 m/s 9.8 mm 21.8° 1005.9 hPa 3.4 m/s 0.0 mm 23.3° 1005.4 hPa 1.8 m/s 0.0 mm 20.7° 1005.4 hPa 3.1 m/s
23:00 19.5° 1005.7 hPa 2.4 m/s 0.0 mm 18.2° 1005.7 hPa 2.0 m/s 36.1 mm 19.2° 1005.3 hPa 3.0 m/s 0.0 mm 20.1° 1005.9 hPa 2.4 m/s 17.7° 1005.9 hPa 3.4 m/s
 04:41     22:08    Daglengte: 17:27 Donderdag 20 Jun
02:00 16.9° 1006.0 hPa 3.1 m/s 17.6 mm 16.4° 1004.4 hPa 4.1 m/s 50.8 mm 18.0° 1006.0 hPa 2.7 m/s 1.0 mm 16.8° 1006.4 hPa 3.0 m/s 16.3° 1004.3 hPa 5.5 m/s
05:00 16.4° 1007.3 hPa 3.8 m/s 19.1 mm 16.6° 1007.5 hPa 3.7 m/s 14.1° 1005.4 hPa 5.1 m/s 19.1 mm
08:00 16.3° 1007.9 hPa 4.3 m/s 19.1 mm 16.5° 1008.0 hPa 4.1 m/s 14.3° 1007.1 hPa 6.2 m/s 19.1 mm
11:00 18.0° 1009.3 hPa 4.4 m/s 19.2 mm 18.2° 1009.2 hPa 4.3 m/s 14.9° 1010.0 hPa 5.6 m/s 19.2 mm
14:00 19.8° 1010.6 hPa 4.6 m/s 19.2 mm 20.0° 1010.5 hPa 4.5 m/s 17.6° 1011.6 hPa 5.3 m/s 19.2 mm
17:00 18.9° 1011.0 hPa 3.4 m/s 19.2 mm 19.1° 1010.9 hPa 3.2 m/s 17.8° 1012.3 hPa 5.8 m/s 19.2 mm
20:00 17.9° 1011.4 hPa 2.1 m/s 19.2 mm 18.1° 1011.3 hPa 1.9 m/s 15.7° 1012.4 hPa 4.0 m/s 19.2 mm
23:00 15.2° 1012.3 hPa 2.1 m/s 19.2 mm 15.6° 1012.2 hPa 2.0 m/s 11.1° 1013.0 hPa 2.7 m/s 19.2 mm
 04:41     22:08    Daglengte: 17:27 Vrijdag 21 Jun
02:00 12.9° 1013.2 hPa 2.1 m/s 19.2 mm 13.0° 1013.2 hPa 2.1 m/s 11.7° 1013.1 hPa 2.0 m/s 19.2 mm
05:00 13.9° 1013.9 hPa 2.4 m/s 19.2 mm 14.2° 1013.9 hPa 2.4 m/s 11.0° 1013.5 hPa 2.1 m/s 19.2 mm
08:00 15.3° 1014.5 hPa 2.7 m/s 19.2 mm 15.4° 1014.6 hPa 2.7 m/s 14.5° 1013.6 hPa 2.4 m/s 19.2 mm
11:00 16.6° 1015.1 hPa 3.6 m/s 19.2 mm 16.5° 1015.2 hPa 3.6 m/s 17.8° 1014.4 hPa 3.6 m/s 19.2 mm
14:00 17.7° 1015.6 hPa 4.6 m/s 19.3 mm 17.6° 1015.7 hPa 4.6 m/s 18.7° 1014.3 hPa 5.1 m/s 19.3 mm
17:00 17.0° 1016.0 hPa 4.3 m/s 19.3 mm 16.9° 1016.2 hPa 4.2 m/s 18.0° 1014.5 hPa 5.2 m/s 19.3 mm
20:00 16.1° 1016.5 hPa 3.8 m/s 19.3 mm 16.2° 1016.6 hPa 3.8 m/s 15.3° 1015.0 hPa 4.2 m/s 19.3 mm
23:00 12.8° 1017.8 hPa 3.0 m/s 19.3 mm 13.0° 1018.0 hPa 3.0 m/s 10.6° 1016.6 hPa 3.2 m/s 19.3 mm
 04:41     22:08    Daglengte: 17:27 Zaterdag 22 Jun
02:00 9.7° 1019.1 hPa 2.2 m/s 19.3 mm 9.8° 1019.3 hPa 2.1 m/s 8.9° 1017.0 hPa 3.1 m/s 19.3 mm
05:00 11.5° 1020.0 hPa 1.9 m/s 19.3 mm 11.7° 1020.2 hPa 1.9 m/s 9.0° 1017.5 hPa 2.9 m/s 19.3 mm
08:00 13.6° 1021.0 hPa 1.8 m/s 19.3 mm 13.6° 1021.2 hPa 1.6 m/s 13.3° 1018.7 hPa 3.6 m/s 19.3 mm
11:00 15.9° 1021.3 hPa 2.4 m/s 19.3 mm 15.9° 1021.5 hPa 2.2 m/s 16.1° 1019.5 hPa 3.5 m/s 19.3 mm
14:00 18.2° 1021.6 hPa 2.9 m/s 19.3 mm 18.2° 1021.7 hPa 2.9 m/s 17.9° 1020.2 hPa 2.7 m/s 19.3 mm
17:00 17.3° 1021.7 hPa 2.7 m/s 19.5 mm 17.4° 1021.9 hPa 2.6 m/s 17.1° 1019.4 hPa 3.4 m/s 19.5 mm
20:00 16.4° 1021.9 hPa 2.4 m/s 19.6 mm 16.5° 1022.1 hPa 2.3 m/s 14.9° 1019.1 hPa 3.9 m/s 19.6 mm
23:00 13.2° 1022.6 hPa 2.4 m/s 19.6 mm 13.5° 1022.8 hPa 2.3 m/s 10.1° 1019.9 hPa 3.4 m/s 19.6 mm
 04:42     22:09    Daglengte: 17:27 Zondag 23 Jun
02:00 10.3° 1023.2 hPa 2.4 m/s 19.6 mm 10.5° 1023.5 hPa 2.4 m/s 7.7° 1019.8 hPa 2.9 m/s 19.6 mm
05:00 11.5° 1023.3 hPa 2.4 m/s 19.6 mm 11.9° 1023.6 hPa 2.4 m/s 6.9° 1019.3 hPa 2.7 m/s 19.6 mm
08:00 13.2° 1023.5 hPa 2.4 m/s 19.6 mm 13.4° 1023.8 hPa 2.4 m/s 11.4° 1020.2 hPa 2.6 m/s 19.6 mm
11:00 16.0° 1023.3 hPa 2.6 m/s 19.6 mm 16.1° 1023.5 hPa 2.5 m/s 15.2° 1020.1 hPa 2.7 m/s 19.6 mm
14:00 18.6° 1023.1 hPa 2.7 m/s 19.6 mm 18.7° 1023.3 hPa 2.7 m/s 17.3° 1020.6 hPa 2.3 m/s 19.6 mm
17:00 17.9° 1022.2 hPa 3.5 m/s 19.6 mm 17.9° 1022.4 hPa 3.4 m/s 17.4° 1020.0 hPa 4.4 m/s 19.6 mm
20:00 16.9° 1021.4 hPa 4.1 m/s 19.6 mm 17.1° 1021.5 hPa 4.1 m/s 14.4° 1020.1 hPa 4.1 m/s 19.6 mm
23:00 15.4° 1021.1 hPa 3.7 m/s 19.6 mm 16.0° 1021.1 hPa 3.6 m/s 8.8° 1020.7 hPa 3.8 m/s 19.6 mm
 04:42     22:09    Daglengte: 17:27 Maandag 24 Jun
02:00 14.3° 1020.8 hPa 3.2 m/s 19.6 mm 14.9° 1020.8 hPa 3.2 m/s 7.8° 1020.8 hPa 3.2 m/s 19.6 mm
08:00 14.4° 1019.9 hPa 4.3 m/s 19.6 mm 14.6° 1019.8 hPa 4.3 m/s 11.7° 1020.8 hPa 4.0 m/s 19.6 mm
14:00 20.8° 1018.3 hPa 3.9 m/s 19.6 mm 21.1° 1018.1 hPa 3.9 m/s 17.5° 1020.6 hPa 4.1 m/s 19.6 mm
20:00 19.0° 1017.2 hPa 3.0 m/s 19.6 mm 19.5° 1017.0 hPa 3.0 m/s 13.7° 1018.9 hPa 2.9 m/s 19.6 mm
 04:43     22:09    Daglengte: 17:26 Dinsdag 25 Jun
02:00 15.5° 1016.5 hPa 3.5 m/s 19.6 mm 16.2° 1016.4 hPa 3.7 m/s 7.5° 1017.8 hPa 1.0 m/s 19.6 mm
08:00 15.0° 1013.9 hPa 6.4 m/s 19.6 mm 15.3° 1013.7 hPa 6.7 m/s 12.0° 1015.7 hPa 3.0 m/s 19.6 mm
14:00 20.0° 1009.6 hPa 5.9 m/s 22.7 mm 20.7° 1009.3 hPa 6.0 m/s 12.4° 1013.0 hPa 5.4 m/s 22.7 mm
20:00 17.6° 1008.1 hPa 7.9 m/s 34.7 mm 18.0° 1008.1 hPa 7.7 m/s 12.7° 1008.1 hPa 10.2 m/s 34.7 mm
 04:43     22:08    Daglengte: 17:25 Woensdag 26 Jun
02:00 13.4° 1011.9 hPa 6.0 m/s 35.8 mm 13.3° 1012.6 hPa 6.5 m/s 15.0° 1004.5 hPa 1.0 m/s 35.8 mm
08:00 15.5° 1013.7 hPa 7.2 m/s 35.8 mm 15.5° 1014.6 hPa 7.4 m/s 15.0° 1003.5 hPa 4.5 m/s 35.8 mm
14:00 18.5° 1015.3 hPa 7.7 m/s 38.6 mm 18.5° 1016.3 hPa 8.0 m/s 19.1° 1003.8 hPa 4.1 m/s 38.6 mm
20:00 18.1° 1017.9 hPa 2.6 m/s 0.5 mm
 04:44     22:08    Daglengte: 17:24 Donderdag 27 Jun
02:00 13.9° 1017.6 hPa 2.5 m/s 0.4 mm
08:00 14.8° 1016.3 hPa 1.8 m/s 0.8 mm
14:00 18.8° 1015.9 hPa 2.1 m/s 0.8 mm
20:00 18.1° 1014.3 hPa 2.4 m/s 1.8 mm
 04:44     22:08    Daglengte: 17:24 Vrijdag 28 Jun
02:00 14.3° 1013.7 hPa 2.2 m/s 0.8 mm
08:00 14.8° 1012.5 hPa 2.3 m/s 0.3 mm
14:00 18.1° 1011.9 hPa 2.8 m/s 0.7 mm
20:00 17.0° 1010.9 hPa 3.4 m/s 1.8 mm
 04:45     22:08    Daglengte: 17:23 Zaterdag 29 Jun
02:00 13.8° 1010.8 hPa 3.0 m/s 0.7 mm
08:00 14.6° 1010.5 hPa 3.3 m/s 0.6 mm
14:00 18.0° 1011.0 hPa 3.8 m/s 0.7 mm
20:00 17.0° 1010.9 hPa 4.2 m/s 1.6 mm
 04:46     22:07    Daglengte: 17:21 Zondag 30 Jun
02:00 13.7° 1011.1 hPa 3.5 m/s 1.6 mm
08:00 14.7° 1010.9 hPa 3.9 m/s 1.2 mm
14:00 18.2° 1011.4 hPa 4.3 m/s 1.0 mm
20:00 17.2° 1011.4 hPa 4.5 m/s 1.3 mm
 04:46     22:07    Daglengte: 17:21 Maandag 01 Jul
02:00 13.9° 1012.1 hPa 3.8 m/s 0.7 mm
08:00 14.7° 1012.1 hPa 3.6 m/s 0.4 mm
14:00 18.3° 1012.7 hPa 4.0 m/s 0.8 mm
20:00 17.3° 1012.6 hPa 3.9 m/s 0.7 mm
FMI Hirlam - 7.5 km EWN WRFDA - 12 km DWD ICON - 7 km GFS - 25 km Basiskaart






























































Updatetijd (Europe/Amsterdam) Resolutie Lengte Stap
FMI Hirlam 01:15, 07:15, 13:15, 19:15 7.5 km 49h 1h
EWN WRFDA 22:15, 04:15, 10:15, 16:15 12 km 73h 1h
DWD ICON 23:45, 05:45, 11:45, 17:45 7 km 75h 1h
GFS 20:30, 02:30, 08:30, 14:30 25 km 237h 3h
30+ mm
25-30 mm
20-25 mm
15-20 mm
10-15 mm
6-10 mm
4-6 mm
2-4 mm
1-2 mm
0.5-1 mm
0.2-0.5 mm
0.1-0.2 mm
30+ mm
25-30 mm
20-25 mm
15-20 mm
10-15 mm
6-10 mm
4-6 mm
2-4 mm
1-2 mm
0.5-1 mm
0.2-0.5 mm
0.1-0.2 mm
Sneeuwval
Natte sneeuw
Hagel
Vorst
30+ mm
25-30 mm
20-25 mm
15-20 mm
10-15 mm
6-10 mm
4-6 mm
2-4 mm
1-2 mm
0.5-1 mm
0.2-0.5 mm
0.1-0.2 mm
Sneeuwval
Natte sneeuw
Hagel
Vorst
Onweer
50 mm
40 mm
30 mm
26 mm
22 mm
18 mm
14 mm
10 mm
9 mm
8 mm
7 mm
6 mm
5 mm
4.5 mm
4 mm
3.5 mm
3 mm
2.5 mm
2 mm
1.5 mm
1 mm
0.8 mm
0.6 mm
0.4 mm
0.2 mm
0.05 mm
35°
30°
25°
20°
15°
10°
-5°
-10°
-15°
-20°
-25°
-30°
-35°
33> m/s
29 m/s
25 m/s
21 m/s
17 m/s
14 m/s
11 m/s
8 m/s
5 m/s
3 m/s
0 m/s
2600 J/kg
2400 J/kg
2200 J/kg
2000 J/kg
1800 J/kg
1600 J/kg
1400 J/kg
1200 J/kg
1000 J/kg
800 J/kg
600 J/kg
400 J/kg
200 J/kg
70 dBZ
65 dBZ
60 dBZ
55 dBZ
50 dBZ
45 dBZ
40 dBZ
35 dBZ
30 dBZ
25 dBZ
20 dBZ
15 dBZ
10 dBZ
5 dBZ
-1 K
-2 K
-3 K
-4 K
-5 K
-6 K
-7 K
-8 K
-9 K
950 m²/s²
900 m²/s²
850 m²/s²
800 m²/s²
750 m²/s²
700 m²/s²
650 m²/s²
600 m²/s²
550 m²/s²
500 m²/s²
450 m²/s²
400 m²/s²
350 m²/s²
300 m²/s²
250 m²/s²
200 m²/s²
150 m²/s²
100 m²/s²
46 m/s
44 m/s
42 m/s
40 m/s
38 m/s
36 m/s
34 m/s
32 m/s
30 m/s
28 m/s
26 m/s
24 m/s
22 m/s
20 m/s
16 m/s
12 m/s
8 m/s
4 m/s
30 m/s
28 m/s
26 m/s
24 m/s
22 m/s
20 m/s
18 m/s
16 m/s
14 m/s
12 m/s
10 m/s
8 m/s
6 m/s
4 m/s
2 m/s
3.0
2.8
2.6
2.4
2.2
2.0
1.8
1.6
1.4
1.2
1.0
0.8
0.6
0.4
0.2
15
14
13
12
11
10
9
8
7
6
5
4
3
2
1
90%
80%
70%
60%
50%
40%
30%
20%
10%
42
40
38
36
34
32
30
28
26
24
22
20
18
16
14
12
90+ cm
80-90 cm
70-80 cm
60-70 cm
50-60 cm
40-50 cm
30-40 cm
20-30 cm
10-20 cm
1-10 cm
Sneeuwval
Natte sneeuw
Regen
>120 mm
115 mm
110 mm
105 mm
100 mm
95 mm
90 mm
85 mm
80 mm
75 mm
70 mm
65 mm
60 mm
55 mm
50 mm
45 mm
45 mm
40 mm
35 mm
30 mm
25 mm
20 mm
15 mm
10 mm
5 mm
0.1 mm
960 hPa
880 hPa
800 hPa
720 hPa
640 hPa
560 hPa
584 gpdm